GFSSE_sfc_wetblb_273.txt.gz
Wetbulb
65.56 67.95 70.99 71.13 70.54 71.40 71.39 70.89 70.28 69.67 69.28 68.75 69.04 69.66 69.48 69.95 70.03 69.69 69.35 69.10 69.11 69.28 69.49 68.67 70.03 69.62 69.58 70.37 70.35 70.47 70.44 69.87 69.80 69.23 68.79 69.82 69.98 69.93 69.60 68.66 68.29 65.85 67.70
66.72 68.57 70.04 71.32 71.31 71.69 72.18 71.42 70.79 69.77 69.24 68.78 68.42 69.03 69.72 69.36 69.27 69.18 68.89 69.34 68.91 68.63 68.84 68.63 69.97 69.75 69.01 69.51 69.83 69.83 70.05 70.16 69.87 69.38 69.24 69.62 69.50 69.38 69.13 68.20 67.81 66.04 66.60
67.65 68.77 68.95 70.59 71.34 71.50 71.57 71.59 71.17 70.01 69.38 68.86 68.53 68.33 69.17 69.59 69.05 68.57 68.42 69.89 69.90 68.41 68.61 68.62 68.83 68.88 68.39 68.48 68.73 69.07 69.26 69.08 69.18 68.66 68.78 67.08 66.97 69.01 68.86 67.65 66.80 66.42 66.15
68.88 68.40 68.41 69.66 70.99 71.44 71.71 71.02 71.25 70.79 69.73 69.07 68.65 68.25 68.56 69.80 69.77 69.19 69.04 70.31 70.54 69.56 68.22 67.66 67.51 68.14 67.53 67.73 67.92 68.24 68.46 68.60 68.60 67.77 66.67 66.70 66.78 68.79 68.04 67.29 66.35 66.21 66.08
68.52 68.23 68.24 69.36 71.08 71.44 71.73 71.09 70.68 71.09 70.54 69.55 68.97 68.45 68.42 69.51 70.24 70.26 69.60 69.61 70.22 70.23 68.81 68.61 68.34 67.82 67.16 67.01 67.37 67.98 68.09 68.11 67.32 65.74 65.55 65.43 65.70 67.42 67.22 66.74 65.86 66.03 64.91
67.56 67.95 68.20 69.61 70.86 71.07 70.84 70.71 70.75 70.91 70.81 70.40 70.21 69.32 68.91 69.64 69.68 69.61 69.58 69.64 69.55 69.71 69.07 68.49 67.98 67.32 67.07 66.98 67.43 67.68 67.87 67.52 65.51 64.16 64.75 65.75 64.71 67.44 66.51 65.33 65.33 64.36 64.03
66.62 67.65 68.31 69.02 70.13 70.73 70.63 70.52 70.80 70.54 70.80 70.65 70.65 70.02 70.10 69.87 69.22 68.95 69.06 69.03 68.98 69.00 68.92 68.44 67.75 66.71 67.44 67.73 67.58 67.57 67.95 66.13 63.03 62.44 63.13 63.32 64.15 66.00 66.15 65.22 64.20 63.55 63.57
65.89 67.03 68.57 66.49 67.99 69.37 69.77 69.72 69.72 70.36 69.85 70.23 70.30 69.39 69.45 69.99 69.38 68.94 68.56 68.34 68.64 68.80 68.93 68.01 67.80 67.57 67.49 67.54 67.74 67.60 66.19 64.02 62.02 61.79 61.93 62.86 65.49 66.02 65.67 64.51 63.80 63.52 62.69
65.23 65.89 66.17 66.51 66.72 65.06 67.29 67.70 68.04 68.80 68.69 69.17 69.47 69.24 68.19 68.41 68.86 68.56 68.03 67.99 68.00 68.32 68.23 68.40 67.57 67.61 67.69 67.07 67.20 65.98 63.68 62.65 61.32 61.49 62.06 62.95 65.50 65.79 65.14 64.26 63.01 62.55 62.23
50.95 57.67 64.20 66.15 66.93 66.84 66.90 64.15 65.61 66.61 67.12 67.30 67.40 66.76 65.68 65.42 66.24 66.37 65.82 67.13 67.97 67.83 67.75 67.49 66.97 67.20 67.42 66.92 66.14 63.87 62.39 61.95 60.82 61.58 62.56 63.05 65.41 65.60 64.73 63.59 62.96 62.35 61.33
45.89 46.86 48.95 52.35 60.03 64.59 66.68 66.03 62.70 63.49 64.68 64.91 64.61 63.33 62.95 65.21 65.12 64.09 64.18 65.31 67.16 66.84 67.12 66.89 66.74 66.74 65.90 65.17 64.54 62.63 61.55 61.46 61.45 61.61 62.15 63.87 65.39 65.35 64.64 63.45 62.55 61.77 61.17
42.61 43.99 45.88 48.34 50.79 54.59 60.91 65.00 65.66 66.00 65.59 65.74 65.29 64.21 64.77 64.39 64.35 64.40 62.05 62.56 64.66 64.54 65.81 66.41 66.61 65.38 62.96 63.14 63.23 61.80 61.98 61.27 60.89 61.22 62.01 64.03 65.05 65.06 64.26 62.91 61.69 61.41 60.69
40.55 44.01 45.42 46.64 48.07 49.54 51.18 54.86 63.05 64.84 65.45 65.52 64.70 64.03 63.32 63.60 63.31 63.14 62.97 62.58 62.93 60.56 63.07 64.40 63.80 63.33 61.51 62.74 63.15 61.90 61.70 61.06 60.55 60.30 61.57 63.38 64.72 64.64 64.08 62.65 61.78 60.83 60.20
41.64 43.18 44.79 45.59 47.10 47.76 48.60 50.56 53.40 57.41 58.62 61.45 64.56 64.24 63.29 62.23 62.52 62.73 62.24 62.23 62.39 61.85 61.64 61.19 61.43 61.20 60.91 62.07 62.20 61.53 60.94 60.83 60.43 61.17 61.44 61.17 63.84 64.40 64.01 63.12 61.97 60.99 60.32
41.60 42.46 44.23 44.98 45.83 47.68 47.36 47.62 49.23 51.62 55.97 56.59 58.04 59.22 63.46 62.49 61.70 62.03 61.86 61.99 61.97 61.49 61.65 60.44 60.42 59.43 60.02 60.99 61.99 62.04 60.81 60.57 59.99 61.00 61.63 58.32 62.06 64.18 63.92 63.36 62.42 61.21 60.55
43.54 42.47 44.45 45.08 45.56 46.34 46.21 46.39 46.92 48.55 51.12 54.86 55.98 56.69 54.96 62.11 61.82 61.29 61.22 60.93 61.32 61.22 61.51 60.56 59.55 58.63 58.04 59.94 60.95 61.70 60.96 60.68 59.79 60.55 61.22 60.46 60.84 62.70 63.33 63.14 62.75 61.83 60.96
44.04 44.35 44.31 44.76 45.63 44.75 44.65 45.72 46.81 47.53 49.82 50.34 54.63 57.25 58.16 56.33 58.20 61.69 60.97 59.99 60.63 61.18 61.15 60.68 59.19 58.30 57.40 58.49 58.91 60.42 61.03 60.48 59.80 59.63 60.61 60.73 60.65 60.07 61.73 63.11 62.13 61.81 61.31
42.03 43.07 43.69 45.43 44.10 43.94 43.70 44.45 45.45 46.69 46.88 48.66 50.70 52.98 53.87 56.76 57.14 57.20 60.92 60.20 60.42 61.05 60.92 60.29 59.37 57.75 57.03 57.61 57.46 57.28 58.66 57.76 59.44 59.61 59.72 60.06 60.30 60.15 60.46 61.69 61.83 61.50 61.15
41.05 41.52 41.99 42.82 43.16 43.96 44.34 44.28 44.32 45.33 45.64 46.58 48.10 49.62 51.74 55.23 56.26 54.22 55.56 60.84 60.49 60.56 60.34 59.92 59.09 58.40 56.47 56.18 54.33 49.25 48.51 50.23 52.02 53.92 58.43 58.83 59.33 59.29 59.41 60.00 59.47 59.54 60.54
40.64 40.80 41.27 42.49 43.01 43.05 42.73 42.64 42.92 43.41 44.51 45.60 46.90 48.46 50.60 51.44 51.76 52.18 52.77 50.47 60.52 60.04 59.85 59.41 58.47 58.00 56.43 53.20 46.88 41.25 40.58 41.78 44.23 45.59 48.99 50.90 52.45 55.32 57.84 58.18 57.82 57.25 58.33
39.13 39.46 40.33 40.58 41.02 40.38 39.70 39.07 39.65 39.84 41.66 42.77 44.82 47.50 48.31 48.17 48.92 50.91 50.90 49.93 48.25 58.43 59.54 59.38 58.37 56.00 54.54 49.69 41.43 39.28 38.58 38.86 39.32 40.39 41.70 42.91 44.16 45.93 48.60 56.27 56.59 56.36 56.93
38.32 39.45 39.83 38.66 38.82 39.14 39.16 38.99 38.66 38.80 39.60 40.66 41.96 42.91 43.96 45.52 47.37 49.08 48.90 48.66 49.00 48.04 56.41 59.06 57.61 54.76 51.62 46.96 50.38 44.53 39.22 40.35 38.05 37.37 38.43 39.18 38.60 40.57 43.39 44.54 51.96 54.62 55.11
36.47 37.74 38.22 37.54 37.39 37.60 37.36 37.06 36.53 36.83 37.22 37.22 38.48 40.42 42.67 44.97 46.78 47.60 47.54 48.76 50.61 50.22 48.13 57.38 58.02 55.12 49.68 46.13 53.34 49.23 38.23 46.12 36.36 35.17 35.20 36.16 36.81 37.38 38.86 41.21 43.49 47.38 53.28
37.06 37.23 35.32 35.71 34.76 34.99 34.74 33.24 32.42 32.27 31.88 34.22 35.41 37.52 40.05 43.63 45.41 47.26 48.40 47.18 48.19 50.27 50.59 50.20 58.16 55.84 53.28 46.68 50.61 50.90 45.92 39.20 43.13 34.98 33.56 33.79 35.00 36.31 36.84 39.16 40.55 42.16 45.38
35.75 34.48 34.02 32.80 32.51 32.66 32.36 32.14 31.46 31.00 32.51 33.96 34.91 35.64 37.28 39.57 41.87 43.57 44.78 45.19 46.48 48.20 48.81 50.10 53.44 56.15 53.91 49.91 49.87 48.80 41.32 40.09 42.08 36.39 31.96 31.12 32.66 34.47 36.00 36.56 37.28 38.74 41.52
34.00 31.94 31.29 30.61 30.37 31.38 31.32 31.14 30.56 29.98 30.26 30.52 31.34 32.17 34.36 36.43 38.35 40.90 43.62 44.93 45.73 46.95 47.98 48.75 53.18 56.58 53.91 51.94 51.71 51.22 47.61 43.86 40.86 39.47 38.23 32.05 34.74 31.99 34.25 35.19 36.00 36.41 37.71

GFSSE_sfc_wetblb_276.txt.gz
Wetbulb
64.68 66.91 71.04 72.03 71.30 71.38 71.62 70.86 70.14 70.04 69.30 69.75 69.89 70.91 71.31 71.35 71.17 70.97 70.82 70.97 71.55 70.88 70.66 70.76 69.92 69.26 69.62 69.33 69.61 68.79 69.60 69.80 69.68 69.33 70.25 70.02 69.93 70.00 69.59 68.77 68.25 66.64 68.00
65.10 67.84 70.25 71.53 71.42 71.19 71.39 71.24 70.41 69.70 69.13 68.96 69.62 69.42 70.28 70.53 70.52 70.34 70.22 70.16 70.45 70.37 70.01 69.78 70.28 69.77 70.31 70.91 70.51 70.38 70.14 69.81 69.44 68.87 69.71 69.89 69.67 69.48 69.10 68.08 67.82 66.20 67.01
65.99 68.09 68.98 70.71 71.12 71.48 71.07 71.34 70.85 69.77 69.31 68.73 68.54 69.42 69.23 69.33 69.55 69.50 69.18 69.26 69.15 69.08 68.99 69.04 70.54 69.82 70.38 70.20 70.12 69.70 69.76 69.65 69.45 69.16 68.99 67.37 67.37 69.14 68.93 67.90 67.28 66.75 66.64
67.93 68.12 68.03 69.53 71.23 71.50 71.48 70.90 71.09 70.22 69.44 68.91 68.51 68.41 68.96 69.05 68.98 68.77 68.59 68.93 69.19 68.65 69.14 69.94 70.04 69.43 69.08 69.19 69.57 69.33 69.25 69.27 68.74 68.27 65.97 66.79 67.05 69.06 68.60 67.68 66.93 66.66 65.63
67.45 67.96 67.84 69.11 70.82 71.15 71.37 70.92 70.34 70.79 70.42 69.34 68.82 68.43 68.44 68.87 69.23 69.10 69.11 70.08 70.12 69.56 68.32 68.49 68.64 69.03 68.60 68.51 68.93 68.89 69.01 68.72 67.53 66.10 65.50 65.58 66.17 67.74 68.24 67.32 66.67 65.61 64.75
65.87 67.24 67.80 69.42 70.93 71.19 71.07 71.03 70.29 70.19 70.55 70.29 69.64 68.78 68.21 68.86 70.36 70.02 69.94 69.87 69.38 69.50 69.37 68.06 68.48 67.93 67.72 68.20 68.56 68.59 68.62 67.97 66.17 64.39 64.78 66.49 65.47 68.20 67.67 66.77 65.71 64.95 65.07
65.74 66.79 67.82 68.68 70.25 70.86 70.78 70.57 70.26 69.90 70.01 70.31 70.27 70.06 69.48 69.56 70.15 70.01 69.41 69.39 69.29 69.26 69.00 69.17 68.19 67.46 67.74 67.85 68.18 68.39 68.46 66.72 63.41 64.70 63.69 64.55 65.30 67.64 66.88 65.47 64.62 64.05 63.92
65.22 66.25 66.87 65.57 66.39 68.08 69.03 69.24 69.70 70.01 69.88 69.70 69.91 70.34 69.89 69.85 70.08 69.64 69.31 69.04 68.79 68.70 68.76 68.64 68.64 67.83 67.55 67.52 67.66 67.77 66.67 64.22 63.25 63.02 63.28 64.06 66.14 67.03 66.63 65.11 64.35 63.99 63.42
58.51 60.57 62.09 64.32 65.67 65.03 66.11 65.90 67.15 68.34 68.81 69.40 69.31 69.53 68.48 68.17 69.18 69.24 68.60 68.50 69.02 68.96 68.81 68.30 67.72 67.52 67.56 67.76 67.13 66.62 64.48 62.90 61.77 61.95 63.11 63.78 66.14 66.99 66.26 64.93 64.58 63.77 63.17
47.04 48.87 50.17 55.07 59.76 61.86 65.95 64.46 63.81 65.21 66.56 67.23 67.35 67.01 65.75 65.66 66.23 66.39 65.89 67.07 67.97 68.18 68.17 68.09 67.46 67.40 67.36 67.11 66.02 65.18 62.94 61.91 60.03 61.07 62.84 63.43 66.27 66.68 65.91 64.96 63.87 63.32 62.54
44.41 44.63 47.58 49.11 51.26 54.99 61.29 62.17 63.53 63.65 63.69 64.07 64.45 63.89 63.62 65.68 65.36 64.52 64.08 65.26 67.20 66.86 67.35 67.52 66.91 66.87 65.81 64.61 64.71 62.76 61.43 60.67 60.40 62.31 62.67 64.35 66.42 66.38 65.68 64.37 63.72 62.77 62.04
41.22 42.87 44.43 46.10 47.85 50.21 54.04 54.37 60.33 64.21 65.15 65.80 65.86 65.62 65.23 64.79 64.77 64.58 62.21 62.68 64.52 64.75 66.21 66.91 66.45 65.31 63.45 62.06 63.06 61.50 61.49 59.92 61.01 61.61 62.31 64.61 66.17 66.17 65.46 64.48 63.41 62.42 61.84
39.54 43.09 44.30 45.31 46.58 47.08 48.44 50.45 52.79 56.80 58.62 56.67 57.41 59.34 64.90 64.76 63.88 63.94 63.49 63.00 63.39 60.92 63.56 64.86 64.05 63.49 62.20 62.62 62.50 61.78 61.20 60.05 60.92 60.81 61.50 63.89 65.91 65.97 65.43 64.20 63.37 62.73 61.78
39.97 41.40 43.47 44.12 45.85 46.17 46.00 46.66 48.25 50.87 54.22 56.26 56.49 55.56 53.86 61.75 63.63 63.51 63.00 62.73 62.41 62.54 61.19 61.69 62.09 61.69 61.84 62.67 61.79 61.52 61.01 60.19 60.59 60.94 61.40 61.42 64.56 65.62 65.06 64.10 63.31 62.57 61.74
40.85 41.73 43.34 43.66 44.22 46.03 45.74 45.61 46.00 46.63 49.22 52.15 55.76 56.99 56.49 54.84 56.70 62.90 62.71 62.07 61.88 61.61 60.95 61.53 60.87 60.28 60.67 61.77 61.08 60.99 60.93 60.18 60.50 61.14 61.79 58.68 62.44 64.80 64.65 64.35 63.77 62.80 61.55
42.14 42.15 43.46 43.89 44.10 44.78 44.35 44.56 45.12 46.15 46.84 48.81 50.95 54.16 57.01 56.81 56.90 54.74 60.76 62.12 61.58 61.53 61.10 61.22 60.37 59.80 60.00 61.22 60.55 60.43 60.08 60.05 59.85 60.80 61.26 60.71 61.13 63.29 64.46 64.25 63.69 62.98 62.35
41.43 42.22 42.63 43.86 44.14 43.28 43.18 43.98 44.86 45.44 47.50 46.71 47.97 51.28 52.30 57.21 56.92 56.52 53.29 55.29 61.44 61.72 61.20 61.00 60.31 59.67 58.71 60.04 60.38 60.28 60.05 59.44 59.11 59.64 60.29 60.86 60.99 60.49 62.47 64.17 63.26 62.74 62.34
40.66 41.06 42.21 44.20 42.94 42.97 42.89 43.67 44.29 44.93 45.00 45.64 46.86 48.00 49.42 50.78 53.05 55.28 54.20 53.46 57.06 61.38 60.91 60.47 59.59 58.38 57.89 58.48 59.18 60.24 60.28 59.83 59.38 59.64 60.26 60.72 60.71 60.91 60.92 62.43 62.89 62.83 62.10
39.34 39.47 39.84 40.80 41.20 42.09 42.68 43.31 43.06 43.56 43.85 44.47 44.64 45.85 47.37 49.02 50.71 53.69 53.77 52.81 52.90 56.62 60.46 60.33 59.32 58.50 57.27 57.46 57.87 58.77 58.01 58.62 59.26 59.20 59.47 59.90 60.22 60.32 60.37 60.62 60.25 60.28 61.74
37.59 38.01 38.44 39.70 39.97 40.64 40.68 40.35 40.68 41.24 42.04 43.11 43.81 45.08 46.65 47.79 48.98 51.70 51.83 52.19 51.34 49.72 50.07 59.92 59.00 58.80 57.90 57.28 53.44 48.57 45.89 45.79 47.41 49.38 57.33 59.24 59.72 59.58 59.40 59.39 59.05 58.13 59.33
37.35 37.54 38.40 38.68 38.98 37.80 37.89 36.97 37.18 37.02 38.48 39.44 41.23 43.58 44.57 45.93 47.60 46.98 46.60 47.26 50.29 48.49 48.13 47.94 58.80 57.76 57.29 56.00 46.00 43.55 41.35 41.06 42.92 43.86 44.18 45.82 51.52 58.03 58.68 58.74 58.71 58.24 58.46
36.26 36.98 37.27 37.71 37.85 37.21 36.58 36.24 36.26 35.87 36.17 36.82 38.07 39.24 40.82 41.99 43.16 43.68 43.98 45.62 48.22 48.27 47.75 47.64 46.64 56.96 56.85 50.18 51.73 47.54 41.67 41.63 39.41 40.25 41.02 41.62 42.25 42.26 51.82 56.58 57.74 57.19 57.35
34.60 35.05 36.53 36.01 35.92 35.40 34.35 34.50 34.18 33.89 33.51 33.43 34.94 36.57 38.67 40.98 42.11 42.51 42.95 43.78 46.04 47.35 46.41 46.64 47.58 47.16 54.43 49.46 55.77 50.44 42.43 47.18 39.87 36.74 37.27 38.40 38.74 39.43 40.30 45.28 54.85 55.96 56.14
35.76 34.69 33.84 34.06 33.29 33.39 33.09 31.87 30.74 29.84 28.95 31.29 32.56 34.33 35.66 37.53 38.32 40.28 42.85 44.27 45.12 46.13 46.53 46.90 48.18 48.42 50.12 49.77 53.19 54.35 47.49 42.92 47.25 37.37 35.07 35.39 36.43 37.63 38.16 40.19 43.38 50.01 54.59
34.92 32.79 32.16 31.55 31.26 31.54 31.22 30.98 30.19 29.38 30.36 31.18 31.59 31.97 33.30 35.19 37.30 39.43 41.53 43.13 44.90 45.85 47.39 49.36 48.99 49.15 48.88 51.22 51.36 52.88 47.26 41.52 45.11 41.42 34.61 33.59 34.02 35.85 37.45 38.55 39.26 41.28 46.69
33.23 32.42 30.94 29.72 29.36 30.26 30.29 30.02 29.20 28.53 28.90 29.90 30.71 30.88 31.51 32.78 34.14 36.20 38.15 38.77 40.67 42.46 43.05 44.77 46.69 46.83 47.70 48.83 52.65 54.13 51.66 47.98 46.89 44.99 39.83 39.16 39.69 33.56 36.24 37.16 37.80 38.12 40.32

GFSSE_sfc_wetblb_279.txt.gz
Wetbulb
66.09 68.14 70.65 72.49 71.66 71.42 71.27 70.89 70.57 70.78 70.60 70.98 71.66 72.08 72.26 72.06 72.01 72.01 72.40 72.11 72.03 71.65 71.54 71.20 71.32 71.10 70.49 70.05 69.65 69.47 69.93 70.09 70.41 71.10 70.70 70.58 70.45 70.05 69.74 69.14 69.13 67.55 68.58
66.07 68.25 69.76 71.67 72.06 71.66 71.53 71.32 70.85 70.15 69.95 70.01 70.66 71.41 71.57 70.88 71.47 71.34 71.49 71.61 71.41 71.23 71.09 70.93 70.50 70.01 70.01 70.58 70.24 70.03 70.10 70.03 69.97 69.72 70.38 70.38 70.17 69.74 69.51 68.48 68.47 67.11 67.50
66.68 68.44 70.08 70.68 71.90 71.49 71.02 71.31 70.93 69.89 69.38 69.62 69.87 70.04 70.76 70.75 70.83 70.83 70.75 71.30 71.34 70.84 70.59 70.65 70.13 70.26 70.77 70.92 70.20 70.40 70.23 69.75 69.37 69.61 69.58 69.21 68.84 69.40 69.05 68.13 67.62 67.35 67.16
68.68 68.70 69.60 69.56 71.07 71.60 71.26 71.08 71.20 70.32 69.75 69.24 69.22 69.77 69.60 69.83 70.01 69.98 69.93 69.79 70.03 70.05 69.96 69.29 70.60 70.34 70.78 70.33 70.29 70.06 70.28 69.99 69.33 68.77 68.99 68.46 68.52 69.25 69.09 68.25 67.68 66.62 66.25
68.92 68.92 68.90 69.05 70.83 70.88 71.28 71.03 70.62 70.89 70.58 69.75 69.05 68.79 69.30 69.28 69.24 69.68 69.88 69.43 69.77 69.44 69.18 69.25 70.60 70.07 70.09 69.95 69.69 69.68 69.74 69.25 68.50 67.82 68.66 67.59 68.28 68.83 68.84 68.01 66.93 65.91 65.72
68.38 68.72 68.21 69.02 70.60 70.95 70.59 70.66 70.61 70.19 70.17 70.23 69.86 69.00 68.80 69.44 69.93 69.86 69.81 69.55 69.69 69.90 70.21 69.91 69.74 69.59 69.79 69.75 69.26 69.35 69.63 68.72 67.31 68.28 68.15 67.46 67.30 68.77 68.53 67.59 66.05 65.26 65.59
67.41 67.82 68.43 68.16 68.67 69.67 70.28 70.19 70.21 70.32 69.99 69.97 70.38 70.17 69.84 69.51 69.53 70.25 69.84 69.91 70.22 69.83 69.76 69.73 69.49 69.35 68.88 69.07 69.18 68.93 68.37 67.56 67.46 67.59 67.83 67.53 67.29 68.60 68.31 66.85 65.62 65.08 65.02
63.13 61.99 63.25 64.27 66.15 67.16 67.24 67.80 68.85 69.50 69.62 69.68 69.88 69.93 70.07 69.60 69.47 69.98 69.80 69.56 69.36 69.26 69.43 69.29 69.07 68.74 68.01 68.25 68.41 68.08 67.35 65.08 65.86 67.02 67.24 66.98 67.34 68.12 67.58 66.01 64.90 64.76 64.54
51.87 53.15 55.77 58.37 59.43 61.48 64.96 65.65 66.53 67.23 68.11 68.78 68.91 68.99 68.81 68.61 68.49 69.50 68.86 69.05 69.06 69.11 68.96 68.63 68.45 68.14 68.00 67.87 67.70 66.92 65.04 63.78 66.26 66.27 66.42 66.95 66.66 68.05 67.14 65.67 65.01 64.75 63.95
48.75 50.31 51.37 53.21 54.57 58.69 60.92 60.15 63.21 64.84 65.62 65.80 66.43 66.13 65.73 65.77 66.21 66.75 66.28 67.42 68.72 68.44 68.49 67.96 67.66 67.58 67.79 67.28 66.87 65.30 63.27 62.56 63.80 65.56 65.97 65.83 67.20 67.62 66.96 65.85 64.97 64.33 63.96
46.58 47.77 49.39 50.71 51.91 53.71 55.92 55.39 61.21 62.67 63.45 63.94 64.10 63.22 62.88 66.07 67.02 66.57 65.18 65.49 67.51 67.36 67.45 67.87 67.39 66.89 66.10 65.42 65.05 63.83 62.09 64.82 63.28 64.46 65.56 64.82 66.92 67.47 66.84 65.79 64.90 64.28 63.92
45.25 46.75 47.69 49.26 50.20 51.46 52.47 53.50 55.64 57.92 58.48 57.45 56.91 58.54 61.61 64.95 66.07 65.52 63.39 62.54 64.63 64.99 66.27 66.91 66.89 65.53 63.81 66.52 65.82 63.16 65.27 63.93 64.07 64.72 64.80 64.97 66.69 67.10 66.74 65.28 64.75 64.14 63.50
45.06 46.90 47.32 48.35 49.33 49.92 50.41 51.35 53.13 55.39 57.07 58.07 56.94 56.90 56.18 57.09 64.02 64.19 64.59 64.10 64.98 61.73 65.83 66.14 66.28 66.07 65.51 64.97 64.75 63.80 64.36 63.48 64.05 64.38 63.63 64.27 66.87 67.00 66.65 65.49 64.55 63.95 63.22
45.39 46.91 47.47 47.08 48.11 49.16 49.10 49.48 50.22 51.16 53.27 54.79 56.73 56.78 55.85 56.04 57.23 58.56 63.67 63.64 63.70 63.71 64.21 65.40 65.52 65.02 64.27 64.01 63.95 62.83 62.82 63.10 63.90 63.99 63.27 61.91 65.18 66.79 66.45 65.83 64.90 64.01 62.93
44.11 45.75 46.09 46.79 47.03 47.81 47.98 48.49 48.95 49.47 50.42 51.56 53.32 54.77 57.23 56.82 55.43 55.20 53.53 57.01 63.14 63.42 62.76 62.46 64.06 63.51 63.59 63.49 63.23 62.11 62.16 62.12 62.44 63.64 63.92 58.43 62.94 65.93 66.30 66.02 65.04 64.19 63.62
44.23 44.54 45.44 46.24 46.63 46.64 46.85 47.30 47.83 48.65 49.07 50.78 51.26 52.09 53.66 56.85 57.72 56.47 55.30 54.05 52.25 60.16 62.59 62.30 61.84 62.71 62.90 63.09 62.21 62.06 61.70 61.88 61.73 61.57 63.62 62.82 60.97 64.13 65.49 65.49 65.00 64.42 63.82
43.54 44.00 44.22 45.74 45.84 44.94 45.05 45.97 46.84 47.12 47.94 48.85 49.52 50.24 51.26 51.73 53.46 56.69 55.57 53.01 52.88 52.23 55.58 61.45 61.32 61.40 62.27 62.12 61.36 61.30 61.11 60.80 61.08 62.04 62.14 61.96 61.70 60.86 63.14 65.16 64.90 64.31 63.87
41.87 41.94 43.00 43.73 43.60 43.97 44.14 44.76 45.03 45.75 46.30 47.08 47.85 48.60 49.02 49.43 50.46 51.03 53.13 53.50 53.81 54.61 52.80 55.32 60.67 59.72 59.68 60.19 60.37 60.43 59.68 59.94 60.19 60.98 62.07 61.34 61.95 62.43 61.81 63.12 63.80 64.31 63.52
40.83 41.16 41.48 42.15 42.16 42.49 42.95 43.12 43.17 43.57 44.15 44.80 45.83 46.34 46.59 47.81 49.06 49.55 50.15 52.74 53.06 51.84 50.98 51.18 53.58 59.74 58.48 58.57 59.21 60.08 59.91 59.36 59.00 59.48 60.77 61.31 61.31 61.85 63.12 61.54 61.11 61.14 62.78
40.08 40.38 40.45 40.94 41.04 41.00 41.16 40.81 40.87 41.11 42.01 43.41 44.10 44.94 45.22 46.00 46.66 48.07 48.81 50.06 53.28 51.62 50.22 49.33 48.63 49.53 58.75 58.07 57.48 57.93 59.44 59.52 59.55 59.06 59.41 60.51 60.48 60.71 61.91 62.19 60.80 59.68 60.13
39.36 39.25 39.61 39.24 39.22 38.67 38.34 37.12 36.50 36.02 37.98 38.65 40.24 40.93 41.53 42.60 44.40 46.17 47.59 48.49 50.02 50.98 49.67 49.44 48.85 48.20 47.61 58.40 54.72 46.05 44.14 45.27 48.76 57.86 58.92 59.56 59.65 60.08 60.10 60.41 60.60 60.62 59.59
37.30 37.85 38.06 38.05 37.67 36.75 36.93 36.29 35.42 35.36 36.09 36.73 37.42 38.03 38.99 40.48 41.92 42.48 43.49 44.73 45.90 46.33 48.15 48.42 48.03 47.00 47.83 50.24 53.48 51.99 45.67 45.71 44.15 42.23 47.37 51.94 52.03 50.32 58.76 59.12 59.75 60.05 59.34
36.47 36.91 37.32 37.15 36.32 34.98 34.53 34.81 34.27 34.43 34.27 33.85 34.75 36.03 37.64 38.88 40.82 41.55 42.38 43.14 43.24 44.06 44.70 47.87 48.12 46.82 44.85 48.54 52.47 52.09 44.04 48.91 42.27 39.94 39.65 42.93 48.92 46.83 44.31 51.48 58.57 58.67 58.86
36.88 36.87 35.99 35.46 34.07 33.58 33.37 32.36 31.30 30.51 29.65 31.98 33.02 34.54 35.28 36.35 37.13 38.89 39.53 39.89 41.02 44.12 44.31 45.83 47.82 47.42 46.47 44.74 49.77 53.63 53.06 46.64 48.70 39.56 37.14 37.71 39.00 44.08 45.86 43.73 45.74 56.39 57.72
35.77 34.99 34.27 32.80 32.02 32.03 31.63 31.29 30.75 29.82 31.07 31.98 32.24 32.45 33.62 35.01 35.51 36.56 37.99 39.23 40.43 42.56 44.12 45.00 46.30 47.00 47.15 45.92 47.11 50.28 52.49 44.65 48.05 47.70 39.43 37.55 35.69 38.12 42.96 45.00 44.72 45.16 53.90
34.59 33.36 31.93 30.47 30.16 30.54 30.25 30.10 29.52 28.90 29.24 29.50 30.31 30.85 32.17 33.87 35.09 35.81 36.23 36.98 38.30 39.52 40.93 43.68 46.36 46.91 47.14 47.03 47.06 49.34 49.78 49.84 48.71 49.96 46.28 46.36 43.76 36.24 40.56 41.77 43.02 44.77 45.02

GFSSE_sfc_wetblb_285.txt.gz
Wetbulb
68.83 70.51 70.61 71.39 71.60 71.80 71.59 70.89 70.92 71.22 71.54 71.44 71.45 71.20 71.57 71.30 71.86 71.47 71.15 71.17 71.13 71.45 71.91 72.13 72.19 72.04 71.88 71.30 70.88 70.01 69.43 68.52 69.50 70.01 71.16 71.49 71.19 70.90 70.73 70.11 70.27 69.02 69.16
69.67 70.06 69.93 71.26 71.86 71.78 71.52 70.99 70.43 70.37 70.43 71.00 71.29 71.38 71.15 71.43 71.01 71.58 71.63 71.28 70.84 70.65 71.00 71.94 71.77 71.47 71.45 71.10 70.83 70.34 69.60 69.62 69.85 70.86 70.88 71.13 70.73 70.53 70.35 70.10 70.23 68.35 68.29
69.40 69.95 70.33 70.64 71.48 71.32 71.08 70.86 70.25 69.81 69.75 69.77 70.68 71.10 71.25 71.36 71.16 71.43 71.49 71.44 71.17 70.92 70.54 70.77 70.93 70.72 71.20 71.20 70.34 70.26 70.30 70.37 70.56 70.39 69.90 69.79 69.49 70.15 69.90 69.64 69.43 68.06 67.83
69.83 70.44 70.13 69.85 70.48 70.67 70.63 70.56 70.34 69.78 69.58 69.89 69.85 70.50 70.94 70.85 71.26 71.06 71.05 71.15 71.11 71.14 71.07 70.59 70.46 70.46 70.56 70.83 70.19 69.96 70.18 70.60 70.24 69.48 69.21 69.00 68.92 69.81 69.64 69.02 68.45 67.89 67.87
69.91 70.65 70.03 69.87 70.10 69.77 70.25 70.31 70.19 70.23 69.98 69.61 69.71 70.05 70.02 70.55 70.84 70.88 71.02 71.22 70.86 70.84 71.06 70.99 70.82 70.96 70.51 70.23 70.17 70.13 70.06 70.19 69.41 68.65 68.53 68.75 68.05 69.22 69.47 68.93 68.20 67.55 67.87
67.10 69.61 68.62 69.09 69.70 69.84 69.91 69.64 70.20 70.05 69.85 69.87 70.12 69.82 69.91 70.35 70.62 70.85 70.83 70.94 70.89 70.55 70.60 70.79 71.48 71.39 70.75 70.45 70.19 70.07 69.97 69.54 68.33 67.88 67.23 68.25 67.95 69.70 69.53 68.69 67.40 67.69 67.42
64.75 66.70 65.85 66.37 68.19 68.68 68.99 69.03 69.17 69.01 69.14 69.27 69.22 69.27 69.75 70.05 70.25 70.37 70.41 70.51 70.43 70.21 69.91 70.82 71.09 70.73 70.68 70.08 69.58 69.33 69.18 68.26 67.42 66.10 67.37 68.30 68.43 69.48 69.41 68.24 67.11 66.88 65.97
62.06 62.20 61.09 59.95 63.81 64.33 64.98 66.84 67.35 67.63 67.96 68.37 68.40 68.72 68.96 69.10 69.37 69.42 69.58 70.17 70.07 69.91 70.04 70.40 70.31 70.05 69.39 69.19 69.21 68.64 67.63 66.21 65.89 65.93 67.15 68.01 68.25 69.19 69.22 67.88 66.93 66.29 65.86
56.93 57.21 57.85 58.27 59.69 60.01 62.35 63.06 64.15 65.44 65.33 65.35 65.43 65.90 66.54 67.25 67.93 68.18 68.26 68.78 69.13 69.04 69.31 69.40 69.24 68.41 68.42 68.43 68.65 67.63 65.90 65.10 65.97 66.55 66.33 67.93 67.27 69.00 69.07 67.56 66.44 66.10 65.94
54.33 54.92 55.54 56.61 57.33 58.10 58.17 58.87 58.97 59.68 59.74 59.14 60.16 60.41 61.61 64.06 65.28 65.62 65.18 66.69 68.21 68.59 68.40 68.60 68.03 67.99 68.07 67.44 67.06 66.15 64.50 64.25 65.85 66.28 66.37 67.30 67.70 68.94 68.84 67.47 66.36 66.53 65.83
52.49 53.82 54.82 55.20 55.87 55.75 56.28 55.72 58.04 57.81 57.92 57.80 57.68 56.70 57.96 59.82 61.98 63.93 64.53 64.79 66.07 66.67 67.57 67.84 67.52 67.02 66.22 65.44 65.28 64.59 63.22 66.28 65.64 65.79 66.10 65.41 67.94 68.64 68.84 67.34 66.57 66.22 65.61
50.30 52.24 53.98 54.73 54.92 55.29 54.39 56.33 56.72 56.90 57.33 57.54 57.94 57.68 58.06 57.77 58.40 59.07 61.10 61.95 64.08 63.67 64.37 65.85 66.86 65.69 63.67 64.94 65.40 63.44 65.84 65.84 65.55 65.72 65.62 65.36 67.97 68.49 68.54 67.56 66.67 66.30 65.68
50.43 52.48 52.95 54.15 54.84 54.76 54.83 55.58 55.80 56.23 56.33 56.77 56.86 56.84 57.73 57.74 58.79 59.71 61.52 61.73 64.83 61.59 63.97 65.26 65.71 65.97 65.49 64.67 65.12 64.95 64.82 64.90 65.31 65.64 64.48 64.59 67.45 68.07 68.40 67.73 66.88 66.40 65.70
49.92 51.71 52.80 53.55 53.96 54.33 55.08 54.84 55.02 54.67 54.63 55.13 55.43 56.23 56.12 56.27 57.30 57.42 57.78 58.23 58.41 60.51 64.25 64.56 64.39 64.74 64.68 64.73 64.69 64.66 64.34 64.31 64.66 65.33 64.61 61.97 65.56 67.90 68.04 67.81 67.31 66.55 65.61
48.76 51.40 52.43 52.94 53.31 53.24 53.40 53.79 53.78 53.74 53.91 54.23 54.37 55.22 55.16 54.86 56.08 56.25 56.96 57.40 57.42 57.75 56.48 58.97 63.19 63.92 64.03 64.06 64.49 64.39 63.86 63.78 64.35 64.67 64.90 59.07 62.89 66.61 67.70 67.79 67.41 66.89 66.07
49.66 51.18 51.95 51.73 52.08 52.04 52.07 52.29 52.31 52.80 53.03 52.96 53.28 53.73 54.16 54.49 54.96 55.15 55.36 55.81 57.00 57.19 56.53 56.18 55.15 55.15 61.48 63.13 63.35 63.26 63.22 63.61 63.87 64.01 64.43 62.97 61.11 64.32 66.50 68.06 67.29 67.09 66.80
50.22 51.12 50.03 49.76 50.45 50.64 50.51 50.80 50.86 51.05 50.88 51.10 51.25 51.92 52.07 52.48 52.86 53.57 54.08 54.34 54.70 56.58 56.28 55.03 53.80 54.87 54.45 60.17 62.16 62.83 62.87 62.79 63.25 63.68 64.01 64.52 62.94 60.63 63.44 66.29 67.63 67.38 66.76
50.19 49.46 49.01 49.19 49.37 49.48 49.12 49.10 49.12 49.47 49.36 49.28 49.44 50.14 50.59 50.93 50.75 51.00 51.64 52.46 53.96 54.32 55.51 54.74 53.63 52.05 51.38 52.31 57.65 61.79 61.94 62.27 62.29 62.72 63.74 63.93 64.40 63.77 61.47 63.41 65.15 66.02 66.39
48.79 47.98 47.70 48.07 48.28 48.15 47.80 47.50 47.69 47.87 47.64 47.76 47.68 47.72 48.26 48.63 48.88 48.95 49.92 50.98 52.21 52.46 52.72 53.46 52.89 52.58 50.66 50.57 50.68 57.20 61.07 61.00 61.32 62.17 62.34 63.05 63.47 63.97 64.14 62.14 61.73 62.42 64.36
47.72 47.25 47.27 47.82 47.65 47.15 46.91 46.81 46.67 46.64 46.89 46.99 46.25 46.23 46.13 46.10 46.32 46.35 46.95 48.09 49.58 49.99 50.82 51.64 52.72 52.53 51.48 50.57 50.00 50.82 53.76 60.11 61.08 61.10 61.25 61.94 62.67 62.96 63.52 63.70 62.59 61.81 61.29
46.80 46.17 46.36 46.12 46.50 45.84 44.85 43.59 43.26 42.76 43.54 43.86 44.52 45.15 44.53 44.61 44.33 44.00 44.19 45.13 46.26 46.97 48.16 49.75 50.50 51.42 50.99 51.40 49.03 47.86 50.25 53.14 58.32 60.60 61.12 60.78 61.09 61.81 62.54 62.69 63.47 63.00 61.78
45.12 45.55 45.74 45.60 45.16 44.25 43.43 42.62 41.74 41.26 41.67 42.13 42.78 42.71 42.95 42.81 43.01 42.89 43.20 43.71 44.32 45.12 45.71 47.17 48.69 48.49 50.89 51.75 47.67 46.84 43.54 49.95 51.25 56.73 59.64 59.30 59.80 60.47 60.89 62.01 62.27 62.51 62.20
45.10 44.85 44.53 44.44 43.37 42.80 42.05 41.23 40.93 41.11 41.31 40.97 41.85 42.34 42.41 42.37 42.15 41.80 41.76 42.26 43.09 44.19 44.40 45.44 46.01 46.35 45.79 49.83 50.69 47.05 45.24 43.81 50.76 47.81 50.88 58.25 58.49 58.70 59.46 60.42 61.16 61.52 61.67
44.44 44.67 44.37 43.34 42.30 41.67 41.18 39.50 38.28 36.92 36.22 38.59 39.19 40.33 40.57 40.75 40.44 40.62 40.76 41.13 41.57 42.63 42.60 43.42 44.10 45.19 45.27 44.02 48.04 49.39 48.29 48.25 49.11 47.35 44.21 43.66 55.39 57.16 58.03 59.40 59.84 60.52 60.99
43.69 43.32 43.21 42.40 41.47 40.97 40.04 38.86 37.42 36.61 37.70 38.15 38.08 38.18 38.70 39.73 40.08 39.88 40.01 39.52 39.81 40.84 41.88 42.38 42.77 43.25 43.89 44.09 44.45 46.85 47.78 47.48 46.86 45.17 42.61 45.06 41.51 44.26 57.54 58.25 58.84 59.57 59.94
43.64 43.06 42.25 40.89 40.08 40.10 39.06 38.18 36.98 35.97 35.89 35.82 36.00 35.80 36.63 37.47 38.07 38.44 38.60 38.36 38.30 38.39 38.52 39.47 40.89 40.84 41.93 43.33 44.71 45.52 46.28 45.97 45.55 44.81 43.71 47.34 46.11 45.96 46.60 57.03 57.97 58.61 59.53

GFSSE_sfc_wetblb_288.txt.gz
Wetbulb
66.91 69.17 71.76 72.28 72.11 72.11 71.52 71.44 71.63 72.01 72.03 71.81 71.46 71.40 71.53 71.74 71.73 71.71 71.74 71.80 71.69 70.52 70.87 71.56 72.11 72.43 72.01 71.46 71.07 70.74 69.50 68.49 69.28 70.00 70.99 70.71 71.59 71.26 71.22 70.71 70.62 68.80 69.94
68.68 69.62 70.65 72.26 72.22 72.26 71.99 71.30 71.15 71.44 71.51 71.24 71.22 70.81 70.64 70.86 71.44 71.42 71.60 71.63 71.36 70.41 69.96 70.65 71.56 71.61 71.84 71.97 71.17 70.60 69.66 69.39 69.80 70.41 71.13 71.66 70.97 70.86 70.76 70.13 70.07 68.19 68.92
68.84 69.10 69.77 71.53 72.02 71.83 71.76 71.38 70.69 70.46 70.24 70.60 71.03 70.99 70.71 70.68 70.67 70.97 71.16 71.30 70.99 70.77 70.47 70.00 70.33 70.91 70.94 71.06 70.98 70.76 70.14 69.73 69.80 70.22 70.05 68.08 68.18 70.78 70.57 69.82 70.00 68.84 68.48
69.25 69.86 69.44 70.28 71.28 71.40 71.25 71.10 70.50 69.66 69.41 69.59 69.60 70.25 70.48 70.54 70.64 70.81 70.83 71.27 70.74 70.74 70.79 70.29 69.99 70.09 70.48 69.91 70.52 70.33 70.57 70.42 69.94 69.53 68.25 67.87 68.12 70.27 70.21 69.50 68.89 68.43 68.46
68.60 68.95 69.13 69.82 70.83 70.51 70.71 70.66 70.40 70.17 69.84 69.14 69.28 69.57 69.73 70.35 70.61 70.96 71.12 71.23 70.84 70.66 70.69 70.92 70.76 70.69 70.39 69.68 69.61 69.90 70.03 69.89 69.18 68.60 67.17 66.61 66.86 69.10 70.21 69.45 68.69 68.29 68.48
67.29 67.75 67.77 69.45 69.93 69.97 69.98 69.95 69.95 70.34 69.87 69.50 69.74 69.67 69.71 70.42 70.81 70.92 71.02 70.94 70.94 70.60 70.38 70.48 71.22 71.55 71.09 70.46 70.19 70.11 69.94 69.73 68.61 66.92 65.99 66.95 66.33 69.43 70.03 69.36 68.56 68.21 67.87
64.23 61.46 63.26 66.85 67.57 68.22 68.35 68.90 69.20 69.23 69.07 68.88 68.90 69.22 69.14 69.67 69.83 70.31 70.08 70.24 70.65 70.48 69.82 69.60 70.74 70.92 70.67 70.43 70.21 70.07 69.78 68.43 67.07 65.93 64.98 65.74 66.45 70.23 69.88 69.26 68.31 67.49 67.74
59.12 59.56 59.34 59.92 62.62 64.49 65.37 66.21 67.31 67.61 67.62 67.97 68.23 68.46 68.76 69.28 69.15 68.77 69.03 69.51 69.21 70.17 69.83 69.83 70.13 70.14 70.02 69.96 69.84 69.44 68.07 66.52 65.99 64.89 63.43 65.39 67.58 69.68 69.65 69.05 68.12 67.66 66.72
54.94 55.60 55.47 57.06 59.45 60.07 60.76 61.71 63.63 63.66 62.49 62.44 62.86 63.60 64.87 65.81 67.16 67.90 67.86 67.56 68.06 68.67 69.29 69.27 69.31 69.33 69.34 68.79 68.19 67.43 65.80 65.22 64.52 64.44 64.48 65.91 67.74 69.38 69.26 68.93 68.02 67.25 66.48
51.53 52.49 53.03 53.43 54.85 55.31 55.29 58.38 58.83 59.57 59.64 59.34 58.45 58.22 59.04 62.38 63.30 63.92 65.03 66.18 67.16 67.63 68.58 68.73 68.53 68.52 68.36 67.78 66.99 65.74 64.57 63.96 64.18 63.65 64.01 64.80 68.05 69.82 69.13 68.88 67.80 67.20 66.56
50.76 50.69 51.34 51.83 52.23 52.78 54.03 55.08 57.26 57.61 58.46 58.19 57.81 57.80 56.88 55.83 57.15 60.51 61.13 63.59 66.00 66.60 66.25 66.53 67.63 67.67 66.23 65.25 65.15 64.24 63.17 64.47 63.89 63.48 63.93 64.04 68.17 69.70 69.35 68.48 68.19 67.87 66.94
47.36 48.44 50.14 50.46 51.01 51.55 53.76 53.19 53.11 54.72 53.98 54.60 54.78 54.73 55.80 55.07 55.87 57.04 57.76 60.27 62.35 63.32 65.16 65.45 65.57 65.48 63.94 65.08 64.87 63.43 64.14 64.31 63.92 63.51 63.57 64.36 68.57 69.73 69.30 68.45 68.24 68.21 67.55
46.47 48.01 49.96 50.60 50.72 50.58 50.59 50.99 51.37 52.27 52.06 52.86 52.96 53.25 53.73 54.14 54.72 55.51 55.86 56.81 56.47 58.35 63.69 63.72 63.48 64.59 64.65 64.85 64.83 63.76 64.05 64.43 63.88 63.51 63.52 63.30 67.75 69.94 69.23 68.68 68.02 68.16 67.71
45.35 48.19 49.08 49.97 50.76 50.20 49.89 49.62 49.78 50.14 49.82 50.60 51.16 52.06 51.57 51.18 51.75 52.48 53.16 54.36 53.93 55.31 56.51 62.47 63.53 63.81 63.83 64.65 64.64 63.93 63.72 63.01 62.99 63.01 62.93 60.94 65.58 68.98 69.56 68.92 68.05 67.70 67.61
44.07 47.61 48.57 49.20 49.04 49.68 49.48 49.02 49.06 48.96 49.28 49.86 50.13 51.81 51.78 50.47 50.05 51.09 51.63 52.56 53.81 54.16 53.76 54.17 57.87 61.95 63.18 63.54 63.92 64.14 63.90 63.61 62.45 62.43 62.79 58.34 62.70 67.44 69.17 68.74 68.67 68.00 67.39
46.05 47.42 48.73 49.08 48.37 48.62 47.54 47.55 47.36 47.88 48.43 48.31 48.61 49.58 50.41 49.97 49.47 49.76 49.85 50.68 51.47 53.71 53.20 53.05 53.08 55.25 57.39 59.65 62.80 63.58 63.56 63.71 63.51 62.78 62.63 60.73 60.97 65.05 67.40 68.52 68.69 68.56 67.81
46.51 48.49 47.79 47.24 47.36 46.80 46.21 46.31 46.34 46.64 47.49 46.43 46.89 47.60 47.94 48.73 47.62 47.60 47.80 48.24 49.29 50.49 52.97 52.64 51.77 51.60 52.65 55.09 56.49 60.95 61.82 62.94 62.74 62.61 62.29 62.44 60.83 61.08 64.51 67.01 67.60 68.45 68.42
46.50 46.59 46.86 47.90 45.99 45.72 44.94 44.63 45.18 45.24 44.72 44.73 44.97 45.34 46.17 47.08 47.17 45.89 46.06 46.52 47.93 48.95 49.25 50.92 50.80 49.58 49.15 49.14 50.29 54.21 59.60 62.02 62.22 62.41 62.57 62.63 62.34 61.91 61.89 64.31 65.63 66.68 67.67
45.37 45.12 45.10 45.50 45.08 44.80 44.19 43.80 43.44 43.85 43.57 43.77 43.61 43.43 44.14 45.22 45.77 44.28 44.30 44.86 46.34 46.91 47.37 47.91 48.27 49.31 48.05 47.76 48.57 49.38 51.14 54.64 60.90 61.88 61.85 61.90 62.24 62.38 61.90 61.95 62.51 62.81 65.28
43.66 43.76 43.98 44.54 44.17 43.68 43.04 42.63 42.15 41.99 42.30 42.20 41.79 42.35 43.52 43.18 43.77 42.76 42.66 42.82 43.94 43.99 44.70 45.98 46.35 47.59 48.19 47.31 48.75 48.37 48.54 51.03 52.47 56.26 61.02 61.42 61.68 62.05 62.50 61.63 61.23 61.52 61.29
42.79 42.65 42.81 42.52 42.44 41.28 39.61 38.53 37.96 37.22 38.49 38.98 40.05 41.42 41.42 41.49 41.96 41.07 40.91 41.38 42.03 41.95 42.52 43.90 44.70 44.74 45.58 47.62 45.49 45.59 46.53 48.15 49.35 50.06 55.81 60.85 60.96 61.48 61.55 61.86 61.35 61.65 61.57
41.45 42.03 42.09 42.06 41.09 40.34 39.16 37.96 37.23 36.64 37.11 37.93 39.35 39.77 40.69 40.99 41.38 41.18 40.11 40.26 40.66 40.99 41.37 41.81 42.08 42.15 44.15 46.04 47.25 44.65 40.66 41.57 46.51 48.82 51.34 58.53 60.00 60.80 60.89 61.10 61.26 61.34 61.87
40.29 40.26 41.13 40.81 40.00 39.06 38.60 37.85 37.21 36.92 36.57 36.23 37.20 37.94 39.07 40.11 40.16 39.91 39.40 39.19 39.14 39.64 39.22 40.03 41.08 41.06 40.29 42.44 45.39 46.83 40.79 38.26 42.93 46.85 50.63 53.11 58.08 59.27 60.04 60.37 60.89 61.30 61.31
39.83 40.40 40.38 40.20 39.01 38.97 37.88 35.99 34.61 33.31 32.82 34.43 35.59 36.50 37.39 38.56 38.57 39.11 39.16 38.75 38.35 38.88 38.51 39.12 40.95 39.98 39.95 39.36 41.75 45.09 47.83 44.68 42.35 41.41 42.81 45.01 49.62 56.73 58.31 59.44 59.90 60.93 61.50
40.03 38.57 38.55 38.44 37.99 37.51 36.61 35.57 33.77 32.99 33.70 34.58 34.84 34.62 35.36 36.44 37.47 37.83 39.19 38.89 38.38 38.22 38.47 38.50 38.56 39.91 40.26 39.20 39.31 40.88 41.64 43.88 45.01 42.08 40.01 43.23 41.29 45.95 48.64 57.62 59.14 59.95 60.74
39.07 38.53 37.53 36.92 36.57 36.80 35.70 34.92 33.68 32.50 32.42 32.74 32.97 32.85 33.96 34.71 35.23 35.91 36.69 37.06 37.25 37.13 36.95 37.22 37.60 38.02 38.56 39.22 40.05 40.59 41.00 40.15 42.20 43.61 41.94 41.32 42.76 46.27 47.63 50.26 55.52 58.42 59.48

GFSSE_sfc_wetblb_291.txt.gz
Wetbulb
67.54 69.99 72.03 73.04 72.45 71.99 71.79 71.91 72.52 72.70 72.59 71.86 71.63 71.59 71.85 71.96 71.85 72.10 72.34 72.32 72.01 71.29 70.59 70.45 71.36 72.12 72.00 71.72 71.37 70.73 69.94 69.24 70.02 70.42 71.04 71.94 71.30 71.58 71.24 70.83 70.58 69.05 70.37
68.21 70.17 71.09 72.37 72.49 72.31 71.62 71.42 72.02 72.10 72.30 71.67 71.36 71.20 71.17 71.41 71.59 71.58 71.68 71.48 71.54 71.16 70.30 70.15 70.49 71.25 71.69 71.17 71.35 70.55 69.51 69.09 69.76 70.25 70.87 71.79 71.54 71.24 70.87 70.31 70.08 68.79 69.38
68.25 69.90 71.07 71.51 72.21 72.15 72.03 71.53 71.35 71.43 70.98 71.18 71.26 71.13 71.04 70.89 71.04 71.25 71.32 71.22 71.01 70.90 70.62 70.05 69.76 70.21 71.09 70.50 70.30 70.22 69.48 69.32 69.67 69.99 70.35 68.03 67.92 70.81 70.72 69.84 70.32 69.32 68.96
69.02 69.56 69.71 69.90 71.41 71.84 71.66 71.21 70.68 70.52 70.22 70.19 70.27 70.70 70.68 70.47 70.59 70.69 70.58 70.68 70.49 70.32 70.33 70.18 69.62 70.06 70.73 70.69 70.39 69.94 70.01 69.62 69.45 69.38 68.15 67.83 68.10 70.35 70.52 69.96 69.75 69.15 68.59
68.09 69.15 69.23 69.88 71.12 71.10 70.90 70.78 70.45 70.15 69.67 69.27 69.19 69.41 69.50 69.90 70.21 70.34 70.32 70.20 70.23 70.11 70.01 69.98 70.25 70.19 70.62 70.33 70.20 70.18 70.03 69.80 68.95 68.52 66.97 66.49 66.42 69.01 70.42 70.08 69.29 69.31 69.10
65.38 66.93 68.60 69.81 70.25 70.19 70.14 70.02 69.95 69.82 69.41 69.08 69.01 69.10 68.99 69.21 70.31 70.52 70.25 69.98 70.03 70.08 70.07 69.81 70.11 71.23 71.11 70.21 69.84 69.70 69.54 69.37 68.42 66.81 66.43 66.31 66.37 69.33 70.06 70.02 69.28 69.03 68.14
58.68 62.45 66.05 67.34 68.05 68.33 68.48 68.90 69.16 69.28 69.21 69.08 68.75 68.69 68.82 68.82 69.19 69.31 69.47 69.28 69.34 69.40 69.07 69.23 69.63 70.50 70.54 69.99 70.03 70.04 69.52 68.46 67.41 65.98 65.69 64.75 65.99 69.93 70.25 69.59 68.76 68.24 67.90
57.65 57.77 58.48 62.68 64.80 66.18 66.77 67.04 67.13 66.99 67.00 66.71 67.09 67.74 68.21 68.49 68.74 68.76 68.65 68.73 68.71 68.54 68.92 69.25 69.81 69.94 70.06 69.82 69.58 69.02 68.24 66.75 66.22 65.53 65.69 63.46 66.80 70.20 70.23 69.52 68.86 68.33 68.25
54.35 54.68 55.87 56.92 58.68 60.09 62.56 63.65 62.85 61.46 61.60 60.32 60.47 62.68 65.38 65.98 66.03 66.31 66.98 67.73 68.02 68.06 68.21 69.28 69.39 69.17 69.57 69.39 68.80 68.03 66.43 65.36 65.61 65.44 65.15 62.43 66.93 70.00 70.04 69.52 69.02 68.96 68.48
50.88 51.47 51.40 52.60 54.42 53.72 55.22 58.50 59.25 60.05 60.52 60.08 59.41 59.25 58.36 58.21 60.69 61.97 63.19 65.08 66.82 67.36 67.44 67.94 68.71 68.76 68.73 68.59 67.34 65.91 64.53 64.24 65.00 63.86 64.14 63.53 67.06 70.09 70.96 69.76 68.94 69.09 68.33
49.51 49.24 49.59 49.76 50.01 52.11 53.37 55.17 56.79 58.33 58.55 57.76 56.77 57.52 55.55 54.30 54.86 55.63 58.04 61.15 63.34 65.27 66.68 66.86 66.74 67.33 66.66 65.47 64.95 64.16 63.08 64.57 64.26 64.31 63.57 63.71 66.75 69.51 70.56 69.94 68.82 68.80 68.36
45.24 47.42 48.32 48.37 48.63 49.54 53.50 51.25 51.43 53.21 52.28 52.83 52.49 52.52 53.38 52.74 53.95 55.88 55.29 58.01 58.23 57.88 62.14 65.25 66.18 65.23 63.39 64.73 64.15 62.98 63.69 64.02 63.89 63.97 63.59 64.03 66.39 68.96 70.33 69.81 69.16 68.56 68.51
44.73 47.49 48.32 48.54 48.45 48.52 48.49 49.24 49.20 50.18 49.10 50.39 50.47 50.78 51.59 51.74 51.58 52.11 52.47 52.98 53.06 54.03 55.07 60.48 62.94 62.95 62.95 63.81 64.12 63.80 63.45 63.43 63.81 63.99 63.69 63.16 65.93 67.42 70.02 69.84 69.30 68.96 68.43
44.47 46.15 47.69 48.31 48.90 48.04 47.61 47.35 47.56 48.10 47.72 48.41 48.81 49.89 49.74 48.84 48.79 49.52 50.16 50.76 51.87 52.33 51.80 52.00 55.77 61.32 63.33 63.71 63.70 63.42 63.39 63.22 64.14 63.94 63.18 60.86 63.78 67.11 69.20 69.96 69.54 68.89 68.32
44.47 45.52 46.57 47.24 47.25 47.79 47.49 46.75 46.79 46.52 46.90 47.29 47.76 48.93 48.92 47.74 47.50 48.20 48.55 49.05 50.07 51.71 51.81 51.15 50.95 53.00 56.73 61.68 63.55 63.46 63.40 63.12 63.48 63.87 63.71 58.92 61.28 65.19 67.86 69.54 69.37 68.87 68.47
44.27 45.26 46.53 46.68 46.22 47.02 45.56 45.43 44.94 45.33 45.57 45.63 45.89 46.61 47.17 46.79 45.78 46.16 46.71 47.33 47.68 49.11 51.28 51.48 50.94 50.43 50.92 53.59 55.71 59.99 62.53 63.09 63.28 62.73 62.86 62.45 60.27 62.77 65.88 67.96 68.99 69.00 68.32
43.79 46.37 46.06 45.31 45.56 44.62 44.11 44.03 43.87 44.23 45.27 44.05 44.53 45.08 45.31 46.13 44.89 44.47 44.40 44.73 45.74 46.94 47.73 49.77 50.98 50.40 49.73 50.55 50.48 52.50 55.62 59.39 62.71 63.04 62.67 62.35 62.10 59.84 62.61 66.18 67.23 68.42 68.94
44.33 44.39 44.85 47.08 44.32 43.59 42.80 42.49 42.91 42.94 42.37 42.52 42.93 43.22 43.94 44.92 44.83 43.05 43.06 43.28 44.73 45.24 45.67 45.66 47.46 49.06 48.37 47.88 47.95 48.42 49.52 53.19 55.59 61.03 62.65 62.59 62.33 62.15 60.99 63.07 65.14 66.04 67.89
43.40 43.42 43.28 43.89 43.32 42.92 42.44 42.15 41.65 41.88 41.45 41.66 41.29 41.29 42.03 43.37 43.80 42.36 41.96 42.08 43.17 43.01 43.43 44.18 44.79 45.74 46.70 46.80 47.36 47.93 48.01 48.49 50.02 52.72 54.99 61.84 62.22 62.16 62.03 61.58 61.60 62.02 64.74
41.24 41.66 42.24 42.65 42.14 41.82 40.97 40.19 39.64 39.39 39.44 39.10 39.15 40.10 41.46 41.29 41.87 40.70 40.46 40.48 41.32 41.09 41.21 41.99 42.18 43.44 44.35 45.39 47.22 47.94 46.46 47.43 48.55 49.34 50.73 54.12 61.09 61.93 62.25 61.77 61.85 61.68 60.87
40.44 40.51 40.93 40.95 40.33 39.30 37.73 36.47 35.76 35.03 36.17 36.67 37.94 39.57 39.87 40.07 40.72 39.93 39.35 39.63 40.14 39.96 40.22 40.98 41.25 40.69 41.40 43.58 43.92 44.39 46.01 46.84 47.24 48.08 48.95 49.59 51.45 60.41 61.22 61.74 61.69 61.81 62.07
39.41 39.81 40.08 40.25 39.11 38.61 37.27 36.27 35.59 34.86 35.20 36.07 37.45 38.31 39.23 39.57 39.80 39.61 38.59 38.38 38.52 38.46 38.53 38.85 39.32 39.36 40.41 42.03 41.28 42.56 40.64 41.54 42.41 45.45 47.00 47.79 48.18 52.30 59.71 60.94 61.41 61.34 61.43
37.75 38.26 39.42 39.00 38.49 37.44 37.10 36.41 35.61 35.03 34.49 34.16 34.95 35.62 37.13 38.34 38.64 38.50 38.09 37.81 37.61 37.81 37.23 37.73 38.17 38.07 37.18 39.28 40.98 41.94 41.34 38.69 39.62 42.28 43.77 45.42 46.69 50.50 57.02 59.73 60.67 60.98 60.72
37.30 38.16 38.69 38.58 37.76 37.47 36.31 34.74 33.18 31.83 30.88 32.35 33.21 34.57 35.25 36.72 36.79 37.57 38.03 37.76 38.65 38.82 37.93 37.93 38.81 38.35 38.83 37.13 38.57 41.75 41.89 42.23 40.63 40.31 40.20 41.60 45.40 47.68 51.22 57.65 58.82 60.00 60.27
38.02 36.99 37.09 37.05 36.77 36.08 35.18 34.23 32.50 31.56 32.13 32.60 32.55 32.80 33.37 34.31 35.30 35.60 35.97 35.92 36.33 37.69 38.03 37.78 37.44 37.01 37.80 37.68 37.75 38.47 38.26 38.99 40.60 39.80 38.69 41.85 40.74 43.38 48.67 50.97 52.56 57.43 59.18
37.03 36.74 36.15 35.89 35.29 35.34 34.24 33.56 32.37 31.22 31.01 30.82 31.06 30.83 31.75 32.65 33.25 34.49 35.58 35.49 35.86 36.04 36.19 36.62 36.98 36.89 36.69 37.06 37.65 38.25 38.33 38.08 38.30 38.56 37.86 40.15 40.86 42.65 44.34 47.05 50.10 52.53 56.30